Location: *
(38.9555°S, 57.3572°E)
Time: 01:56:14
(UTC+00:00)

Cosmos 2292 Rocket - Pass Details

Date: 15 July 2020
Orbit: 381 x 1452 km, 83.0° (Epoch: 06 August)

Event Time Altitude Azimuth Distance (km) Brightness Sun altitude
Rises 13:38:15 0° 191° (S) 2,363 6.4 -6.2°
Reaches altitude 10° 13:40:18 10° 194° (SSW) 1,453 5.4 -6.6°
Maximum altitude 13:43:18 59° 274° (W) 458 3.3 -7.1°
Drops below altitude 10° 13:46:19 10° 355° (N) 1,460 5.9 -7.7°
Sets 13:48:23 0° 359° (N) 2,375 6.9 -8.1°
